Back to catalog

METEOR 2-8 DEB

AlivePO
NORAD 36354·DEBRIS·🇷🇺 Russia

Launched Mar 25, 1982 from Plesetsk Cosmodrome

Loading…

Next Passes (next 24 hours)

TLE

StaleSource: Space-Track

Epoch: Sep 1, 2026, 09:20 UTC

1 36354U 82025AQ  26244.38952086  .00002368  00000-0  92979-3 0  9995
2 36354  82.4915 126.3478 0014220 192.9826 167.0995 14.28973600190657

Track METEOR 2-8 DEB in real time with AllMySat

Download on the App Store